TimeCST,TemperatureF,Dew PointF,Humidity,Sea Level PressureIn,VisibilityMPH,Wind Direction,Wind SpeedMPH,Gust SpeedMPH,PrecipitationIn,Events,Conditions,WindDirDegrees,DateUTC
12:15 AM,32.2,31.1,96,30.30,10.0,ESE,3.5,-,N/A,,Overcast,120,2013-11-25 06:15:00
12:35 AM,32.4,31.6,97,30.29,10.0,ESE,4.6,-,N/A,,Overcast,120,2013-11-25 06:35:00
12:55 AM,32.4,30.9,94,30.30,10.0,Calm,Calm,-,N/A,,Overcast,0,2013-11-25 06:55:00
1:15 AM,32.4,31.1,95,30.28,10.0,Calm,Calm,-,N/A,,Overcast,0,2013-11-25 07:15:00
1:35 AM,32.2,31.5,97,30.28,4.0,Calm,Calm,-,N/A,,Overcast,0,2013-11-25 07:35:00
1:55 AM,32.0,31.8,99,30.27,5.0,Calm,Calm,-,N/A,,Overcast,0,2013-11-25 07:55:00
2:15 AM,32.4,32.0,99,30.27,5.0,South,3.5,-,N/A,,Overcast,170,2013-11-25 08:15:00
2:35 AM,32.4,32.0,99,30.25,5.0,Calm,Calm,-,N/A,,Overcast,0,2013-11-25 08:35:00
2:55 AM,32.4,32.0,99,30.25,10.0,Calm,Calm,-,N/A,,Overcast,0,2013-11-25 08:55:00
3:15 AM,32.5,32.0,98,30.23,10.0,Calm,Calm,-,N/A,,Overcast,0,2013-11-25 09:15:00
3:35 AM,32.7,32.0,97,30.24,10.0,Calm,Calm,-,N/A,,Overcast,0,2013-11-25 09:35:00
3:55 AM,32.9,32.0,96,30.23,10.0,SE,3.5,-,N/A,,Overcast,140,2013-11-25 09:55:00
4:15 AM,32.9,32.2,97,30.23,7.0,Calm,Calm,-,N/A,,Overcast,0,2013-11-25 10:15:00
4:35 AM,32.9,32.4,98,30.22,10.0,Calm,Calm,-,N/A,,Overcast,0,2013-11-25 10:35:00
4:55 AM,32.9,32.2,97,30.22,10.0,Calm,Calm,-,N/A,,Overcast,0,2013-11-25 10:55:00
5:15 AM,32.9,32.4,98,30.22,10.0,Calm,Calm,-,N/A,,Overcast,0,2013-11-25 11:15:00
5:35 AM,33.1,32.5,98,30.21,10.0,SE,5.8,-,N/A,,Overcast,130,2013-11-25 11:35:00
5:55 AM,32.9,32.5,99,30.21,7.0,SSE,5.8,-,N/A,,Overcast,150,2013-11-25 11:55:00
6:15 AM,33.1,32.5,98,30.20,10.0,SSE,4.6,-,N/A,,Overcast,160,2013-11-25 12:15:00
6:35 AM,33.1,32.4,97,30.20,10.0,SE,3.5,-,N/A,,Overcast,140,2013-11-25 12:35:00
6:55 AM,33.3,32.5,97,30.20,10.0,Calm,Calm,-,N/A,,Overcast,0,2013-11-25 12:55:00
7:15 AM,33.3,32.5,97,30.20,10.0,North,-9999.0,-,N/A,,Overcast,0,2013-11-25 13:15:00
7:35 AM,33.4,32.5,96,30.21,10.0,North,-9999.0,-,N/A,,Overcast,0,2013-11-25 13:35:00
7:55 AM,33.8,32.9,96,30.21,10.0,Calm,Calm,-,N/A,,Overcast,0,2013-11-25 13:55:00
8:15 AM,33.8,32.9,96,30.21,10.0,ESE,3.5,-,N/A,,Overcast,120,2013-11-25 14:15:00
8:35 AM,34.2,33.1,96,30.21,10.0,Calm,Calm,-,N/A,,Overcast,0,2013-11-25 14:35:00
8:55 AM,34.5,32.9,94,30.22,10.0,SE,3.5,-,N/A,,Overcast,140,2013-11-25 14:55:00
9:15 AM,34.9,33.1,93,30.22,10.0,ESE,4.6,-,N/A,,Overcast,120,2013-11-25 15:15:00
9:35 AM,35.2,33.4,93,30.22,10.0,SE,3.5,-,N/A,,Overcast,140,2013-11-25 15:35:00
9:55 AM,35.8,33.6,92,30.22,10.0,SSE,5.8,-,0.07,,Overcast,150,2013-11-25 15:55:00
10:15 AM,36.5,32.9,87,30.21,10.0,SE,4.6,-,0.03,,Overcast,130,2013-11-25 16:15:00
10:35 AM,38.3,33.1,81,30.20,10.0,South,3.5,-,0.06,,Overcast,190,2013-11-25 16:35:00
10:55 AM,37.9,32.4,80,30.20,10.0,Calm,Calm,-,0.09,,Overcast,0,2013-11-25 16:55:00
11:15 AM,37.6,32.0,80,30.20,10.0,Calm,Calm,-,0.02,,Overcast,0,2013-11-25 17:15:00
11:35 AM,37.8,32.0,80,30.19,10.0,Calm,Calm,-,0.02,,Overcast,0,2013-11-25 17:35:00
11:55 AM,38.7,32.4,78,30.18,10.0,Calm,Calm,-,0.02,,Overcast,0,2013-11-25 17:55:00
12:15 PM,39.2,32.0,75,30.17,10.0,WNW,4.6,-,N/A,,Overcast,300,2013-11-25 18:15:00
12:35 PM,39.2,32.5,77,30.16,10.0,Calm,Calm,-,N/A,,Overcast,0,2013-11-25 18:35:00
12:55 PM,39.2,32.0,75,30.16,10.0,North,3.5,-,N/A,,Overcast,350,2013-11-25 18:55:00
1:15 PM,38.8,32.0,76,30.15,10.0,Calm,Calm,-,N/A,,Overcast,0,2013-11-25 19:15:00
1:35 PM,38.7,32.0,77,30.15,10.0,Calm,Calm,-,N/A,,Overcast,0,2013-11-25 19:35:00
1:55 PM,39.2,32.0,75,30.14,10.0,NNW,3.5,-,N/A,,Overcast,330,2013-11-25 19:55:00
2:15 PM,39.2,32.0,75,30.14,10.0,North,4.6,-,N/A,,Overcast,350,2013-11-25 20:15:00
2:35 PM,39.2,32.2,76,30.14,10.0,NNW,5.8,-,N/A,,Overcast,340,2013-11-25 20:35:00
2:55 PM,38.8,32.0,76,30.14,10.0,North,5.8,-,N/A,,Overcast,350,2013-11-25 20:55:00
3:15 PM,39.0,32.2,76,30.14,10.0,NNW,5.8,-,N/A,,Overcast,340,2013-11-25 21:15:00
3:35 PM,38.8,32.2,77,30.15,10.0,NNE,5.8,-,N/A,,Overcast,20,2013-11-25 21:35:00
3:55 PM,38.7,32.2,78,30.15,10.0,Calm,Calm,-,N/A,,Overcast,0,2013-11-25 21:55:00
4:15 PM,38.8,32.2,77,30.15,10.0,NNE,5.8,-,N/A,,Overcast,30,2013-11-25 22:15:00
4:35 PM,38.7,32.2,78,30.16,10.0,NNE,4.6,-,N/A,,Overcast,30,2013-11-25 22:35:00
4:55 PM,38.5,32.2,78,30.16,10.0,NE,4.6,-,N/A,,Overcast,40,2013-11-25 22:55:00
5:15 PM,38.5,32.7,80,30.17,10.0,NE,4.6,-,N/A,,Overcast,40,2013-11-25 23:15:00
5:35 PM,38.5,33.8,83,30.17,10.0,ENE,5.8,-,N/A,,Drizzle,60,2013-11-25 23:35:00
5:55 PM,37.4,34.3,89,30.17,10.0,NE,5.8,-,N/A,,Light Drizzle,50,2013-11-25 23:55:00
6:15 PM,37.4,35.6,93,30.17,10.0,NNE,5.8,-,N/A,,Overcast,30,2013-11-26 00:15:00
6:35 PM,37.4,36.0,95,30.18,10.0,NE,6.9,-,N/A,,Light Drizzle,40,2013-11-26 00:35:00
6:55 PM,37.4,35.8,94,30.18,10.0,NNE,6.9,-,N/A,,Overcast,30,2013-11-26 00:55:00
7:15 PM,37.4,36.0,95,30.19,10.0,NNE,5.8,-,N/A,,Overcast,20,2013-11-26 01:15:00
7:35 PM,37.4,35.6,93,30.20,10.0,NNE,9.2,-,N/A,,Overcast,20,2013-11-26 01:35:00
7:55 PM,37.0,35.6,95,30.20,7.0,NNE,8.1,-,N/A,Rain,Rain,20,2013-11-26 01:55:00
8:15 PM,36.7,35.6,96,30.20,10.0,NNE,8.1,-,N/A,,Overcast,30,2013-11-26 02:15:00
8:35 PM,36.7,35.2,95,30.21,10.0,NNE,8.1,-,N/A,,Light Drizzle,30,2013-11-26 02:35:00
8:55 PM,36.7,35.6,96,30.21,10.0,North,5.8,-,N/A,,Light Drizzle,10,2013-11-26 02:55:00
9:15 PM,36.7,35.6,96,30.22,10.0,NNE,6.9,-,N/A,,Overcast,20,2013-11-26 03:15:00
9:35 PM,36.7,35.1,94,30.22,10.0,NNE,9.2,-,N/A,,Overcast,20,2013-11-26 03:35:00
9:55 PM,36.5,34.7,93,30.22,10.0,NNE,6.9,-,N/A,,Overcast,20,2013-11-26 03:55:00
10:15 PM,36.5,34.9,94,30.22,10.0,North,8.1,-,N/A,,Light Drizzle,10,2013-11-26 04:15:00
10:35 PM,36.5,34.9,94,30.21,10.0,NNE,6.9,-,N/A,,Overcast,20,2013-11-26 04:35:00
10:55 PM,36.5,34.9,94,30.21,10.0,North,9.2,-,N/A,,Overcast,360,2013-11-26 04:55:00
11:15 PM,36.5,34.9,94,30.21,10.0,North,10.4,-,N/A,,Overcast,360,2013-11-26 05:15:00
11:35 PM,36.5,34.9,94,30.21,10.0,North,5.8,-,N/A,,Overcast,350,2013-11-26 05:35:00
11:55 PM,36.1,34.7,94,30.21,10.0,North,8.1,-,N/A,,Overcast,360,2013-11-26 05:55:00